{"data":{"norad_id":47780,"intl_designator":"2021-017BL","name":"STARLINK-2213","alt_names":[],"object_type":"PAYLOAD","status":"ACTIVE","operator":null,"country":"US","launch_date":"2021-03-04","launch_site_code":"AFETR","launch_vehicle":null,"mission":null,"orbit_class":"UNKNOWN","rcs_meters":null,"size_class":null,"mass_kg":null,"dimensions":null,"purposes":["comms"],"wikipedia_slug":null,"has_3d_model":false,"image_url":null,"decayed_at":null,"tle_current":{"epoch":"2026-09-19T22:30:45.186336Z","epoch_age_seconds":74244,"freshness":"FRESH","line1":"1 47780U 21017BL  26262.93802299  .00001352  00000+0  55302-4 0  9996","line2":"2 47780  53.1613  19.8340 0001229  90.5738 269.5404 15.31707081307663","mean_motion":15.31707081,"eccentricity":0.0001229,"inclination_deg":53.1613,"raan_deg":19.834,"arg_perigee_deg":90.5738,"mean_anomaly_deg":269.5404,"bstar":5.5302e-5,"rev_number":30766,"period_min":94.012753343144,"perigee_km":469.87716282589,"apogee_km":471.56061160297,"semimajor_km":6848.8558872144,"source":"CELESTRAK","updated_at":"2026-09-20T09:00:38.604060Z"}}}